TimeEDT,TemperatureF,Dew PointF,Humidity,Sea Level PressureIn,VisibilityMPH,Wind Direction,Wind SpeedMPH,Gust SpeedMPH,PrecipitationIn,Events,Conditions,WindDirDegrees,DateUTC
12:53 AM,50.0,46.0,86,29.62,10.0,WNW,16.1,26.5,N/A,,Overcast,290,2012-10-15 04:53:00
1:17 AM,50.0,44.6,82,29.63,10.0,WNW,15.0,27.6,N/A,,Overcast,290,2012-10-15 05:17:00
1:53 AM,50.0,44.1,80,29.65,10.0,WNW,16.1,24.2,N/A,,Overcast,290,2012-10-15 05:53:00
2:53 AM,48.9,42.1,77,29.67,10.0,WNW,16.1,23.0,N/A,,Overcast,300,2012-10-15 06:53:00
3:53 AM,48.9,43.0,80,29.69,10.0,WNW,13.8,-,N/A,,Overcast,290,2012-10-15 07:53:00
4:31 AM,48.2,42.8,82,29.69,10.0,WNW,13.8,-,N/A,,Overcast,290,2012-10-15 08:31:00
4:53 AM,48.0,43.0,83,29.70,10.0,WNW,15.0,19.6,N/A,,Overcast,290,2012-10-15 08:53:00
5:53 AM,46.9,43.0,86,29.72,10.0,WNW,12.7,23.0,0.00,Rain,Light Rain,290,2012-10-15 09:53:00
6:15 AM,46.4,42.8,87,29.72,10.0,WNW,13.8,24.2,0.00,Rain,Light Rain,290,2012-10-15 10:15:00
6:29 AM,46.4,42.8,87,29.73,10.0,WNW,13.8,-,0.00,Rain,Light Rain,290,2012-10-15 10:29:00
6:53 AM,46.0,42.1,86,29.74,10.0,WNW,13.8,21.9,0.00,Rain,Light Rain,300,2012-10-15 10:53:00
7:53 AM,46.4,42.8,87,29.76,10.0,WNW,11.5,-,N/A,,Overcast,300,2012-10-15 11:53:00
8:17 AM,46.4,42.8,87,29.77,10.0,WNW,10.4,18.4,0.00,Rain,Light Rain,300,2012-10-15 12:17:00
8:53 AM,46.9,41.0,80,29.79,10.0,WNW,11.5,-,0.00,,Overcast,300,2012-10-15 12:53:00
9:53 AM,46.9,41.0,80,29.81,10.0,WNW,12.7,-,N/A,,Overcast,300,2012-10-15 13:53:00
10:03 AM,46.4,41.0,81,29.81,10.0,WNW,12.7,-,N/A,,Overcast,300,2012-10-15 14:03:00
10:53 AM,48.0,41.0,77,29.83,10.0,WNW,13.8,-,N/A,,Overcast,300,2012-10-15 14:53:00
11:53 AM,48.0,39.9,74,29.85,10.0,WNW,15.0,-,N/A,,Overcast,290,2012-10-15 15:53:00
12:53 PM,48.0,41.0,77,29.87,10.0,NW,16.1,21.9,N/A,,Overcast,310,2012-10-15 16:53:00
1:53 PM,48.9,41.0,74,29.87,10.0,NW,11.5,-,N/A,,Overcast,310,2012-10-15 17:53:00
2:26 PM,48.2,41.0,76,29.87,10.0,WNW,16.1,-,N/A,,Overcast,300,2012-10-15 18:26:00
2:53 PM,48.0,39.9,74,29.89,10.0,WNW,11.5,-,N/A,,Overcast,300,2012-10-15 18:53:00
3:53 PM,48.0,39.9,74,29.90,8.0,NW,12.7,-,0.00,,Light Drizzle,310,2012-10-15 19:53:00
4:29 PM,48.2,41.0,76,29.90,10.0,WNW,10.4,-,0.00,,Light Drizzle,300,2012-10-15 20:29:00
4:53 PM,48.0,41.0,77,29.91,10.0,WNW,13.8,17.3,0.00,,Light Drizzle,300,2012-10-15 20:53:00
5:53 PM,48.0,39.0,71,29.94,10.0,NW,12.7,-,0.00,,Overcast,310,2012-10-15 21:53:00
6:24 PM,48.2,39.2,71,29.92,10.0,WNW,10.4,-,N/A,,Overcast,290,2012-10-15 22:24:00
6:53 PM,48.0,39.0,71,29.94,10.0,WNW,11.5,-,N/A,,Overcast,290,2012-10-15 22:53:00
7:53 PM,48.0,37.0,66,29.95,10.0,WNW,8.1,-,N/A,,Overcast,300,2012-10-15 23:53:00
8:53 PM,46.9,37.9,71,29.96,10.0,NW,6.9,-,N/A,,Overcast,320,2012-10-16 00:53:00
9:53 PM,46.9,36.0,66,29.97,10.0,NNW,8.1,-,N/A,,Overcast,330,2012-10-16 01:53:00
10:53 PM,45.0,35.1,68,29.98,10.0,WNW,5.8,-,N/A,,Scattered Clouds,300,2012-10-16 02:53:00
11:53 PM,42.1,35.1,76,29.99,10.0,West,3.5,-,N/A,,Clear,260,2012-10-16 03:53:00